TimePST,TemperatureF,Dew PointF,Humidity,Sea Level PressureIn,VisibilityMPH,Wind Direction,Wind SpeedMPH,Gust SpeedMPH,PrecipitationIn,Events,Conditions,WindDirDegrees,DateUTC
12:08 AM,50.0,50.0,100,29.93,2.5,Calm,Calm,-,N/A,,Clear,0,2012-12-08 08:08:00
12:13 AM,50.0,50.0,100,29.93,2.5,Calm,Calm,-,N/A,,Clear,0,2012-12-08 08:13:00
12:18 AM,50.0,50.0,100,29.93,1.0,SSE,2.3,-,N/A,,Clear,150,2012-12-08 08:18:00
12:20 AM,50.0,50.0,100,29.93,0.8,ESE,1.2,-,N/A,,Mist,120,2012-12-08 08:20:00
12:25 AM,50.0,50.0,100,29.93,0.2,Calm,Calm,-,N/A,Fog,Fog,0,2012-12-08 08:25:00
12:58 AM,49.5,49.5,100,29.94,0.2,ENE,2.3,-,N/A,Fog,Fog,70,2012-12-08 08:58:00
1:58 AM,51.8,51.8,100,29.94,0.2,ESE,3.5,-,N/A,Fog,Fog,110,2012-12-08 09:58:00
2:58 AM,53.4,53.4,100,29.94,0.2,East,2.3,-,N/A,Fog,Fog,90,2012-12-08 10:58:00
3:08 AM,53.6,53.6,100,29.93,0.8,East,2.3,-,N/A,,Mist,80,2012-12-08 11:08:00
3:13 AM,53.6,53.6,100,29.93,0.5,North,1.2,-,N/A,Fog,Fog,10,2012-12-08 11:13:00
3:18 AM,53.6,53.6,100,29.93,0.2,NW,2.3,-,N/A,Fog,Fog,320,2012-12-08 11:18:00
3:58 AM,54.3,54.3,100,29.95,0.2,North,3.5,-,N/A,Fog,Fog,360,2012-12-08 11:58:00
4:38 AM,55.4,55.4,100,29.93,0.5,NE,3.5,-,N/A,Fog,Fog,50,2012-12-08 12:38:00
4:58 AM,55.4,55.4,100,29.94,0.8,ENE,3.5,-,N/A,,Mist,60,2012-12-08 12:58:00
5:08 AM,55.4,55.4,100,29.93,1.0,ENE,5.8,-,N/A,,Mist,60,2012-12-08 13:08:00
5:23 AM,55.4,55.4,100,29.94,1.2,ENE,4.6,-,N/A,,Mostly Cloudy,60,2012-12-08 13:23:00
5:28 AM,55.4,55.4,100,29.93,1.2,East,4.6,-,N/A,,Scattered Clouds,80,2012-12-08 13:28:00
5:33 AM,55.4,55.4,100,29.93,1.0,ENE,5.8,-,N/A,,Mist,70,2012-12-08 13:33:00
5:48 AM,55.4,55.4,100,29.94,1.0,ENE,4.6,-,N/A,,Mist,70,2012-12-08 13:48:00
5:58 AM,54.9,54.9,100,29.95,1.0,ENE,4.6,-,N/A,,Mist,60,2012-12-08 13:58:00
6:13 AM,55.4,55.4,100,29.94,1.2,East,4.6,-,N/A,,Scattered Clouds,80,2012-12-08 14:13:00
6:23 AM,55.4,55.4,100,29.95,1.5,ENE,4.6,-,N/A,,Partly Cloudy,60,2012-12-08 14:23:00
6:43 AM,55.4,55.4,100,29.95,1.0,NE,2.3,-,N/A,,Clear,50,2012-12-08 14:43:00
6:58 AM,55.2,55.2,100,29.97,1.0,NE,2.3,-,N/A,,Clear,50,2012-12-08 14:58:00
6:59 AM,55.4,55.4,100,29.95,1.0,ENE,2.3,-,N/A,,Mist,60,2012-12-08 14:59:00
7:09 AM,55.4,55.4,100,29.96,1.0,ENE,3.5,-,N/A,,Clear,60,2012-12-08 15:09:00
7:12 AM,55.4,55.4,100,29.96,1.0,ENE,4.6,-,N/A,,Mist,60,2012-12-08 15:12:00
7:32 AM,55.4,55.4,100,29.96,1.2,ENE,5.8,-,N/A,,Scattered Clouds,70,2012-12-08 15:32:00
7:37 AM,55.4,55.4,100,29.96,1.2,ENE,4.6,-,N/A,,Mostly Cloudy,60,2012-12-08 15:37:00
7:50 AM,55.4,55.4,100,29.97,1.5,ENE,5.8,-,N/A,,Overcast,60,2012-12-08 15:50:00
7:58 AM,55.6,55.6,100,29.98,1.5,ENE,6.9,-,N/A,,Overcast,60,2012-12-08 15:58:00
8:36 AM,55.4,55.4,100,29.98,2.0,ENE,3.5,-,N/A,,Overcast,60,2012-12-08 16:36:00
8:58 AM,55.2,55.2,100,30.00,2.0,ENE,4.6,-,N/A,,Overcast,70,2012-12-08 16:58:00
9:58 AM,57.2,53.6,88,30.01,2.0,NNE,3.5,-,N/A,,Overcast,20,2012-12-08 17:58:00
10:52 AM,59.0,53.6,82,29.98,3.0,ENE,2.3,-,N/A,,Haze,60,2012-12-08 18:52:00
10:58 AM,59.2,53.8,82,29.99,3.0,Calm,Calm,-,N/A,,Haze,0,2012-12-08 18:58:00
11:58 AM,59.9,55.4,85,29.97,3.0,Calm,Calm,-,N/A,,Haze,0,2012-12-08 19:58:00
12:43 PM,60.8,55.4,82,29.94,3.0,Variable,3.5,-,N/A,,Haze,0,2012-12-08 20:43:00
12:58 PM,61.2,55.8,82,29.95,3.0,SE,2.3,-,N/A,,Haze,140,2012-12-08 20:58:00
1:23 PM,62.6,57.2,82,29.93,3.0,West,2.3,-,N/A,,Haze,270,2012-12-08 21:23:00
1:58 PM,63.7,54.0,71,29.92,3.0,NW,2.3,-,N/A,,Haze,320,2012-12-08 21:58:00
2:58 PM,64.0,53.2,68,29.92,3.0,South,5.8,-,N/A,,Haze,190,2012-12-08 22:58:00
3:58 PM,62.2,53.6,73,29.92,6.0,SSW,8.1,-,N/A,,Haze,210,2012-12-08 23:58:00
4:58 PM,58.8,56.7,93,29.92,5.0,South,5.8,-,N/A,,Clear,180,2012-12-09 00:58:00
5:58 PM,56.3,56.3,100,29.93,4.0,Calm,Calm,-,N/A,,Clear,0,2012-12-09 01:58:00
6:58 PM,54.7,54.7,100,29.94,3.0,Calm,Calm,-,N/A,,Clear,0,2012-12-09 02:58:00
7:28 PM,55.4,55.4,100,29.94,2.5,East,1.2,-,N/A,,Clear,90,2012-12-09 03:28:00
7:48 PM,55.4,55.4,100,29.94,3.0,East,2.3,-,N/A,,Clear,90,2012-12-09 03:48:00
7:53 PM,55.4,55.4,100,29.94,2.5,East,2.3,-,N/A,,Clear,100,2012-12-09 03:53:00
7:58 PM,54.5,54.5,100,29.95,3.0,ENE,1.2,-,N/A,,Clear,60,2012-12-09 03:58:00
8:08 PM,55.4,55.4,100,29.94,2.5,East,2.3,-,N/A,,Clear,100,2012-12-09 04:08:00
8:38 PM,53.6,53.6,100,29.94,3.0,SE,3.5,-,N/A,,Clear,130,2012-12-09 04:38:00
8:58 PM,54.5,54.5,100,29.96,3.0,Calm,Calm,-,N/A,,Clear,0,2012-12-09 04:58:00
9:58 PM,56.8,56.8,100,29.97,4.0,Calm,Calm,-,N/A,,Clear,0,2012-12-09 05:58:00
10:28 PM,59.0,59.0,100,29.97,5.0,ENE,1.2,-,N/A,,Mostly Cloudy,70,2012-12-09 06:28:00
10:53 PM,59.0,59.0,100,29.97,6.0,Calm,Calm,-,N/A,,Scattered Clouds,0,2012-12-09 06:53:00
10:58 PM,58.6,57.9,97,29.98,6.0,East,2.3,-,N/A,,Scattered Clouds,90,2012-12-09 06:58:00
11:58 PM,58.5,56.3,93,29.98,5.0,Calm,Calm,-,N/A,,Clear,0,2012-12-09 07:58:00